sat.trackr.live / text

‹ back to catalog

STARLINK-32190

NORAD 60318 · 2024-133T

PAYLOAD ACTIVE UNKNOWN

§ Identity

Operator
Country
US
Launch date
2024-07-28
Launch site
AFWTR
Launch vehicle
Mass (kg)
RCS (m²)

Purposes: comms

External: N2YO · Heavens-Above · Gunter

§ Orbital elements

Epoch: 2026-09-21T20:03:00.486720Z

Period
93.85 min
Inclination
53.1599°
Eccentricity
0.0001180
Mean motion
15.34408517 rev/d
Perigee alt
461.9 km
Apogee alt
463.5 km
Semi-major
6,840.8 km
B*
7.5693e-5
RAAN
103.6738°
Arg perigee
96.3300°
Mean anomaly
263.7837°
Rev number
12,170

§ Raw data

STARLINK-321901 60318U 24133T   26264.83542230  .00002183  00000+0  75693-4 0  99952 60318  53.1599 103.6738 0001180  96.3300 263.7837 15.34408517121706

JSON: /api/v1/satellites/60318 · /tle

For live sub-satellite position, see the globe view (requires WebGL).

§ Visibility from observer

Set your observer location to see the next 7 days of passes ≥ 10°. The values pass through the URL so the page stays shareable.

No JS? Fill the form by hand. The geolocation button needs JavaScript.